TimeCEST,TemperatureF,Dew PointF,Humidity,Sea Level PressureIn,VisibilityMPH,Wind Direction,Wind SpeedMPH,Gust SpeedMPH,PrecipitationIn,Events,Conditions,WindDirDegrees,DateUTC
1:00 AM,35.6,35.6,100,30.01,-9999.0,Variable,1.2,-,N/A,,Clear,0,2012-10-08 23:00:00
3:00 AM,35.6,33.8,93,29.95,2.5,East,1.2,-,N/A,,Mist,80,2012-10-09 01:00:00
4:00 AM,33.8,33.8,100,29.92,2.8,Variable,2.3,-,N/A,,Mist,0,2012-10-09 02:00:00
5:00 AM,33.8,33.8,100,29.92,2.8,NE,1.2,-,N/A,,Mist,40,2012-10-09 03:00:00
6:00 AM,32.0,32.0,100,29.89,0.4,Calm,Calm,-,N/A,Fog,Fog,0,2012-10-09 04:00:00
7:00 AM,30.2,30.2,100,29.86,0.3,West,2.3,-,N/A,Fog,Light Freezing Fog,280,2012-10-09 05:00:00
9:00 AM,35.6,35.6,100,29.86,0.0,WNW,3.5,-,N/A,Fog,Fog,300,2012-10-09 07:00:00
10:00 AM,37.4,37.4,100,29.86,0.1,Variable,2.3,-,N/A,Fog,Fog,0,2012-10-09 08:00:00
11:00 AM,41.0,39.2,93,29.86,3.7,Variable,1.2,-,N/A,,Mostly Cloudy,0,2012-10-09 09:00:00
12:00 PM,46.4,46.4,100,29.83,-9999.0,Variable,2.3,-,N/A,,Clear,0,2012-10-09 10:00:00
1:00 PM,51.8,42.8,71,29.83,6.2,SSW,8.1,-,N/A,,Scattered Clouds,210,2012-10-09 11:00:00
2:00 PM,53.6,42.8,67,29.80,6.2,SSW,9.2,-,N/A,,Scattered Clouds,210,2012-10-09 12:00:00
3:00 PM,55.4,42.8,63,29.80,6.2,SSW,9.2,-,N/A,,Mostly Cloudy,210,2012-10-09 13:00:00
4:00 PM,55.4,44.6,67,29.80,6.2,WSW,9.2,-,N/A,,Mostly Cloudy,240,2012-10-09 14:00:00
5:00 PM,55.4,44.6,67,29.80,-9999.0,WSW,8.1,-,N/A,,Clear,240,2012-10-09 15:00:00
6:00 PM,51.8,46.4,82,29.83,6.2,West,5.8,-,N/A,,Mostly Cloudy,260,2012-10-09 16:00:00
7:00 PM,50.0,44.6,82,29.86,6.2,NW,10.4,-,N/A,,Partly Cloudy,320,2012-10-09 17:00:00
8:00 PM,46.4,39.2,76,29.86,-9999.0,NNW,6.9,-,N/A,,Clear,330,2012-10-09 18:00:00
9:00 PM,42.8,37.4,81,29.89,-9999.0,NW,5.8,-,N/A,,Clear,320,2012-10-09 19:00:00
10:00 PM,42.8,37.4,81,29.89,-9999.0,NW,4.6,-,N/A,,Clear,320,2012-10-09 20:00:00
11:00 PM,41.0,37.4,87,29.92,-9999.0,NW,4.6,-,N/A,,Clear,320,2012-10-09 21:00:00